Weather History for Natchitoches, LA

Change the Weather History Date:

Wednesday, February 13, 2013

  Actual Average Record
Temperature  
Mean Temperature 44 °F -  
Max Temperature 53 °F 61 °F 85 °F (1962)
Min Temperature 35 °F 38 °F 19 °F (1981)
Degree Days  
Heating Degree Days 21    
Moisture  
Dew Point 40 °F    
Average Humidity 81    
Maximum Humidity 100    
Minimum Humidity 61    
Precipitation  
Precipitation 0.00 in - - ()
Sea Level Pressure  
Sea Level Pressure 30.05 in    
Wind  
Wind Speed 8 mph (NW)    
Max Wind Speed 16 mph    
Max Gust Speed 23 mph    
Visibility 10 miles    
Events      
Averages and records for this station are not official NWS values.
T = Trace of Precipitation, MM = Missing Value Source: NWS Daily Summary

Daily Weather History Graph

Daily Weather History Graph

Search for Another Location

Airport:

Trip Planner

Search our weather history database for the weather conditions in past years. The results will help you decide how hot, cold, wet, or windy it might be!

Date:

Astronomy

Feb. 13, 2013 Rise Set
Actual Time 6:55 AM CST 5:57 PM CST
Civil Twilight 6:30 AM CST 6:22 PM CST
Nautical Twilight 6:02 AM CST 6:51 PM CST
Astronomical Twilight 5:33 AM CST 7:19 PM CST
Moon 8:42 AM CST (2/13) 9:41 PM CST (2/13)
Length of Visible Light 11h 51m
Length of Day
11h 01m
Waxing Crescent, 14% of the Moon is Illuminated
Feb 13
Waxing Crescent
Feb 17
First Quarter
Feb 25
Full
Mar 4
Last Quarter
Mar 11
New

Hourly Weather History & Observations

Time (CST) Temp. Windchill Dew Point Humidity Pressure Visibility Wind Dir Wind Speed Gust Speed Precip Events Conditions
12:15 AM 48.7 °F - 47.7 °F 96% 29.91 in 10.0 mi WNW 4.6 mph - N/A   Overcast
12:35 AM 48.7 °F - 47.5 °F 95% 29.90 in 10.0 mi WNW 6.9 mph - N/A   Overcast
12:55 AM 48.7 °F - 47.5 °F 95% 29.91 in 10.0 mi West 3.5 mph - N/A   Overcast
1:15 AM 48.4 °F - 47.3 °F 96% 29.91 in 10.0 mi West 4.6 mph - N/A   Scattered Clouds
1:35 AM 48.2 °F - 46.9 °F 95% 29.92 in 10.0 mi WSW 3.5 mph - N/A   Clear
1:55 AM 48.2 °F - 46.9 °F 95% 29.94 in 10.0 mi West 6.9 mph - N/A   Mostly Cloudy
2:15 AM 48.6 °F - 45.9 °F 90% 29.95 in 10.0 mi WNW 9.2 mph - N/A   Overcast
2:35 AM 48.2 °F - 45.5 °F 90% 29.96 in 10.0 mi WNW 10.4 mph - N/A   Overcast
2:55 AM 47.8 °F - 44.2 °F 87% 29.96 in 10.0 mi WNW 10.4 mph 16.1 mph N/A   Overcast
3:15 AM 47.7 °F - 43.5 °F 86% 29.96 in 10.0 mi WNW 12.7 mph 16.1 mph N/A   Overcast
3:35 AM 47.3 °F - 42.3 °F 83% 29.97 in 10.0 mi NW 10.4 mph 17.3 mph N/A   Overcast
3:55 AM 47.3 °F - 40.3 °F 77% 29.99 in 10.0 mi NW 13.8 mph 21.9 mph N/A   Overcast
4:15 AM 46.9 °F - 40.3 °F 78% 30.00 in 10.0 mi NW 15.0 mph 23.0 mph N/A   Overcast
4:35 AM 46.8 °F - 40.5 °F 79% 30.00 in 10.0 mi NW 9.2 mph 12.7 mph N/A   Overcast
4:55 AM 46.8 °F - 39.4 °F 75% 30.00 in 10.0 mi WNW 16.1 mph 19.6 mph N/A   Overcast
5:15 AM 46.4 °F 40.7 °F 39.9 °F 78% 29.99 in 10.0 mi NW 12.7 mph 20.7 mph N/A   Overcast
5:35 AM 45.1 °F 39.9 °F 39.6 °F 81% 29.99 in 10.0 mi WNW 10.4 mph - N/A   Scattered Clouds
5:55 AM 44.4 °F 40.0 °F 40.1 °F 85% 30.00 in 10.0 mi WNW 8.1 mph - N/A   Clear
6:15 AM 43.9 °F 39.3 °F 40.5 °F 88% 30.02 in 10.0 mi WNW 8.1 mph - N/A   Clear
6:35 AM 43.7 °F 39.7 °F 40.6 °F 89% 30.02 in 10.0 mi WNW 6.9 mph - N/A   Clear
6:55 AM 43.3 °F 38.1 °F 41.0 °F 91% 30.03 in 10.0 mi WNW 9.2 mph - N/A   Scattered Clouds
7:15 AM 43.2 °F 37.4 °F 40.6 °F 91% 30.03 in 10.0 mi NW 10.4 mph - N/A   Scattered Clouds
7:35 AM 43.0 °F 38.8 °F 40.6 °F 91% 30.04 in 10.0 mi WNW 6.9 mph - N/A   Clear
7:55 AM 45.1 °F 40.8 °F 41.9 °F 88% 30.06 in 10.0 mi NW 8.1 mph 17.3 mph N/A   Scattered Clouds
8:15 AM 45.5 °F 39.6 °F 41.2 °F 85% 30.07 in 10.0 mi NW 12.7 mph 17.3 mph N/A   Mostly Cloudy
8:35 AM 46.9 °F - 41.4 °F 81% 30.08 in 10.0 mi NW 12.7 mph 20.7 mph N/A   Scattered Clouds
8:55 AM 48.0 °F - 41.9 °F 79% 30.09 in 10.0 mi NW 9.2 mph - N/A   Mostly Cloudy
9:15 AM 46.0 °F 39.6 °F 40.1 °F 80% 30.09 in 10.0 mi NW 15.0 mph 18.4 mph N/A   Overcast
9:35 AM 45.3 °F 39.3 °F 39.7 °F 81% 30.10 in 10.0 mi NW 12.7 mph 18.4 mph N/A   Overcast
9:55 AM 47.1 °F - 41.4 °F 80% 30.11 in 10.0 mi NW 9.2 mph - N/A   Overcast
10:15 AM 46.2 °F 40.8 °F 38.3 °F 74% 30.10 in 10.0 mi NW 11.5 mph 18.4 mph N/A   Overcast
10:35 AM 46.4 °F 42.4 °F 38.7 °F 74% 30.10 in 10.0 mi NNW 8.1 mph 18.4 mph N/A   Overcast
10:55 AM 47.1 °F - 38.8 °F 73% 30.10 in 10.0 mi NW 11.5 mph 18.4 mph N/A   Overcast
11:15 AM 46.6 °F - 39.2 °F 75% 30.10 in 10.0 mi NW 11.5 mph - N/A   Overcast
11:35 AM 47.5 °F - 39.0 °F 72% 30.10 in 10.0 mi NNW 9.2 mph 17.3 mph N/A   Overcast
11:55 AM 48.2 °F - 38.1 °F 68% 30.10 in 10.0 mi NW 8.1 mph - N/A   Overcast
12:15 PM 48.6 °F - 39.4 °F 71% 30.09 in 10.0 mi WNW 10.4 mph 16.1 mph N/A   Overcast
12:35 PM 49.3 °F - 38.8 °F 67% 30.08 in 10.0 mi NNW 10.4 mph 17.3 mph N/A   Mostly Cloudy
12:55 PM 51.4 °F - 39.7 °F 64% 30.07 in 10.0 mi NW 11.5 mph 18.4 mph N/A   Scattered Clouds
1:15 PM 51.4 °F - 39.7 °F 64% 30.06 in 10.0 mi NW 11.5 mph 18.4 mph N/A   Scattered Clouds
1:35 PM 50.7 °F - 39.4 °F 65% 30.05 in 10.0 mi NW 15.0 mph 21.9 mph N/A   Scattered Clouds
1:55 PM 51.4 °F - 39.7 °F 64% 30.05 in 10.0 mi NW 12.7 mph 18.4 mph N/A   Scattered Clouds
2:15 PM 52.7 °F - 40.1 °F 62% 30.05 in 10.0 mi NNW 11.5 mph - N/A   Scattered Clouds
2:35 PM 52.0 °F - 39.2 °F 62% 30.05 in 10.0 mi NW 11.5 mph - N/A   Scattered Clouds
2:55 PM 53.1 °F - 40.3 °F 62% 30.05 in 10.0 mi NW 12.7 mph 18.4 mph N/A   Mostly Cloudy
3:15 PM 51.4 °F - 38.7 °F 62% 30.05 in 10.0 mi NW 11.5 mph - N/A   Overcast
3:35 PM 50.7 °F - 38.5 °F 63% 30.05 in 10.0 mi WNW 9.2 mph - N/A   Mostly Cloudy
3:55 PM 49.8 °F - 38.5 °F 65% 30.05 in 10.0 mi WNW 10.4 mph - N/A   Scattered Clouds
4:15 PM 52.2 °F - 39.0 °F 61% 30.06 in 10.0 mi North 10.4 mph - N/A   Scattered Clouds
4:35 PM 50.0 °F - 38.3 °F 64% 30.06 in 10.0 mi NNW 9.2 mph - N/A   Mostly Cloudy
4:55 PM 50.0 °F - 38.1 °F 64% 30.06 in 10.0 mi WNW 10.4 mph - N/A   Overcast
5:15 PM 49.1 °F - 37.4 °F 64% 30.06 in 10.0 mi NNW 5.8 mph - N/A   Overcast
5:35 PM 48.4 °F - 37.0 °F 65% 30.06 in 10.0 mi NW 10.4 mph - N/A   Overcast
5:55 PM 46.8 °F - 36.9 °F 68% 30.06 in 10.0 mi NW 6.9 mph - N/A   Scattered Clouds
6:15 PM 45.7 °F 43.4 °F 37.0 °F 72% 30.07 in 10.0 mi WNW 4.6 mph - N/A   Clear
6:35 PM 44.8 °F 41.6 °F 37.4 °F 75% 30.07 in 10.0 mi WNW 5.8 mph - N/A   Clear
6:55 PM 43.7 °F 40.3 °F 36.7 °F 76% 30.07 in 10.0 mi NW 5.8 mph - N/A   Clear
7:15 PM 43.0 °F 41.3 °F 37.8 °F 82% 30.07 in 10.0 mi WNW 3.5 mph - N/A   Clear
7:35 PM 42.3 °F 40.5 °F 38.3 °F 86% 30.08 in 10.0 mi WNW 3.5 mph - N/A   Clear
7:55 PM 41.5 °F 39.6 °F 38.5 °F 89% 30.08 in 10.0 mi WNW 3.5 mph - N/A   Clear
8:15 PM 40.3 °F 38.2 °F 37.8 °F 91% 30.09 in 10.0 mi WNW 3.5 mph - N/A   Clear
8:35 PM 40.1 °F 38.0 °F 38.5 °F 94% 30.09 in 10.0 mi West 3.5 mph - N/A   Clear
8:55 PM 38.5 °F - 37.4 °F 96% 30.09 in 10.0 mi Calm Calm - N/A   Clear
9:15 PM 37.9 °F - 37.2 °F 97% 30.09 in 10.0 mi Calm Calm - N/A   Clear
9:35 PM 37.4 °F - 36.9 °F 98% 30.10 in 10.0 mi Calm Calm - N/A   Clear
9:55 PM 36.7 °F - 36.3 °F 99% 30.10 in 10.0 mi Calm Calm - N/A   Clear
10:15 PM 36.3 °F - 35.8 °F 98% 30.11 in 10.0 mi Calm Calm - N/A   Clear
10:35 PM 37.0 °F - 36.1 °F 97% 30.11 in 10.0 mi Calm Calm - N/A   Clear
10:55 PM 36.0 °F - 35.6 °F 99% 30.11 in 10.0 mi Calm Calm - N/A   Clear
11:15 PM 35.8 °F - 35.6 °F 99% 30.11 in 10.0 mi Calm Calm - N/A   Clear
11:35 PM 35.6 °F - 35.6 °F 100% 30.10 in 10.0 mi Calm Calm - N/A   Clear
11:55 PM 36.9 °F 33.1 °F 36.5 °F 99% 30.10 in 10.0 mi NW 4.6 mph - N/A   Clear